カタログに戻る

LYNK TOWER 3

運用中通信SSO
NORAD 55046·PAYLOAD·🇺🇸 United States

打ち上げ Jan 3, 2023 から Cape Canaveral Space Force Station

Loading…

次のパス (今後24時間)

TLE

最新Source: Space-Track

元期: Sep 14, 2026, 04:51 UTC

1 55046U 23001AP  26257.20243208  .00008613  00000-0  23214-3 0  9992
2 55046  97.3103 317.0617 0008343 148.6400 211.5345 15.38025379205585

AllMySatでLYNK TOWER 3をリアルタイム追跡

Download on the App Store